Lapse_Rate
8.6 8.4 8.5 8.3 8.3 9.1 8.8 9.0 8.8 8.8 8.8 8.8 8.8 8.7 8.7 8.0 8.0 7.5 6.0 5.5 7.1 5.1 7.0 6.8 6.5 5.9 6.6 5.9 3.2 4.1 5.2 5.2 5.3 4.0 4.7 5.0 5.5 5.0 6.5 6.1 5.9 6.5 6.6 7.0 7.0 5.5 7.2
8.7 8.4 8.5 8.7 8.5 8.7 8.3 9.1 8.6 8.3 9.0 8.9 8.6 8.7 8.2 8.8 7.9 7.7 5.1 4.2 4.6 5.5 6.8 6.7 6.4 5.7 6.8 6.4 4.9 3.4 3.9 4.1 4.2 4.5 4.7 5.0 4.9 4.7 4.9 6.0 6.4 6.6 6.9 6.9 7.1 7.1 7.1
8.8 8.5 8.7 8.7 8.8 8.7 8.7 8.7 8.3 8.2 8.2 8.4 8.2 8.2 8.1 8.2 8.7 7.3 5.2 4.4 4.5 6.3 7.0 6.9 6.1 6.5 6.6 5.1 4.7 4.0 3.8 3.9 3.6 4.3 4.5 5.3 5.0 5.6 4.7 6.5 6.4 6.7 6.5 6.5 6.7 6.9 6.7
8.7 8.9 8.6 8.7 8.5 8.8 8.6 8.2 8.2 8.1 8.2 8.2 8.4 8.4 8.4 8.1 7.4 4.9 4.2 4.4 4.2 4.6 6.9 6.8 6.0 6.8 5.8 5.5 4.9 5.3 4.6 4.4 5.0 5.8 5.2 5.1 5.1 4.1 4.4 5.5 6.3 6.5 6.5 6.5 6.5 6.7 6.7
9.2 8.3 8.6 8.6 8.6 9.0 8.5 8.2 8.1 8.4 8.4 8.2 8.0 8.3 8.5 6.1 6.0 4.2 4.5 5.8 6.3 6.9 6.9 6.7 5.9 6.8 5.6 6.0 5.1 5.0 5.0 4.7 5.9 5.5 5.9 6.4 5.8 4.7 6.0 6.5 6.5 6.5 6.5 6.5 6.5 6.8 6.5
8.4 8.6 8.9 9.2 8.7 8.5 8.1 8.3 8.4 8.0 8.0 8.1 8.8 7.9 6.1 5.3 4.0 4.8 6.1 5.6 6.6 6.8 6.7 7.4 7.2 6.4 5.4 5.9 5.3 4.4 4.9 5.4 6.1 5.9 6.2 6.0 3.8 6.5 6.5 6.5 6.5 6.5 6.5 6.5 6.5 6.5 6.5
8.7 8.7 8.6 8.7 8.8 8.7 8.6 8.3 8.2 9.2 9.2 8.1 7.3 5.8 5.6 5.4 4.3 5.9 5.6 6.0 7.0 6.8 6.7 6.5 5.9 6.1 6.1 6.4 5.9 5.0 5.3 5.9 5.7 5.3 6.5 5.9 6.5 6.5 6.5 6.5 6.5 6.5 6.5 6.5 6.5 6.5 6.5
9.3 9.4 9.1 9.2 9.4 9.2 9.3 9.2 8.9 8.8 8.3 6.0 4.5 4.8 5.4 5.3 4.4 6.2 5.5 6.5 5.6 6.1 6.3 6.2 6.5 6.0 5.1 6.4 6.3 5.6 6.1 5.7 5.7 6.5 6.4 6.5 6.5 6.5 6.5 6.5 6.5 6.5 6.5 6.5 6.5 6.5 6.5
9.3 8.8 8.9 9.3 9.2 9.2 9.2 8.7 8.7 8.6 5.8 5.5 4.6 4.7 6.6 7.2 4.2 5.4 5.7 6.2 4.9 6.1 6.3 6.4 6.3 6.7 5.4 6.0 6.1 5.7 6.0 5.2 6.5 6.5 6.5 6.5 6.5 6.5 6.5 6.5 6.5 6.5 6.5 6.5 6.5 6.5 6.5
9.2 9.3 9.2 9.2 9.2 8.6 8.3 7.5 7.8 8.4 5.9 3.8 4.4 4.6 6.7 5.8 3.9 4.0 6.6 5.7 5.3 6.3 6.5 6.5 6.4 6.7 6.1 6.4 6.3 5.9 5.8 5.6 6.4 6.5 6.5 6.5 6.5 6.5 6.5 6.5 6.5 6.5 6.5 6.5 6.5 6.5 6.5
8.5 9.1 9.2 9.1 9.1 7.6 7.5 4.7 4.7 5.4 4.2 3.7 4.3 4.4 4.6 5.0 5.7 5.4 5.4 4.3 5.2 5.5 6.5 6.5 6.4 7.1 6.3 6.0 6.2 6.5 5.9 5.9 6.5 6.5 6.5 6.5 6.5 6.5 6.5 6.5 6.5 6.5 6.5 6.5 6.5 6.5 6.5
8.9 9.1 9.1 8.6 7.9 6.9 5.6 3.6 3.4 3.5 3.7 3.9 4.5 4.3 4.0 3.6 3.6 5.2 4.8 3.4 4.9 6.5 6.5 6.5 6.4 6.5 6.5 6.5 6.5 6.7 6.5 5.9 5.5 6.5 6.5 6.5 6.1 6.5 6.5 6.5 6.5 6.5 6.5 6.5 6.5 6.5 6.5
8.4 9.1 9.2 8.3 7.4 7.1 5.0 3.1 3.0 3.3 3.4 4.0 4.3 4.5 3.8 4.4 5.8 5.7 3.3 5.3 6.5 6.5 6.5 6.5 6.5 6.5 6.5 6.5 6.5 6.5 6.5 6.5 6.5 6.5 6.5 6.5 6.5 6.5 6.2 6.5 6.5 6.5 6.5 6.5 6.5 6.5 6.5
7.9 8.9 8.8 9.0 7.6 6.8 6.6 2.8 2.5 2.8 3.2 3.8 4.2 4.3 3.5 4.4 4.2 3.5 4.3 6.3 6.5 6.5 6.5 6.5 6.5 6.5 6.5 6.5 6.5 6.5 6.5 6.5 6.5 6.5 6.5 6.5 6.5 6.5 6.5 6.5 6.5 6.5 6.5 6.5 6.5 6.5 6.5
7.8 7.7 9.2 9.0 7.9 7.5 5.5 2.7 2.2 2.5 3.0 3.7 3.9 2.2 2.6 2.9 3.4 2.9 4.0 6.5 6.5 6.5 6.5 6.5 6.5 6.5 6.5 6.5 6.5 6.5 6.5 6.5 6.5 6.5 6.5 6.5 6.5 6.5 6.5 6.5 6.5 6.5 6.5 6.5 6.5 6.5 6.5
8.4 8.9 8.9 9.1 8.0 7.5 5.4 2.6 2.2 2.4 2.6 3.5 1.8 2.9 3.6 3.6 3.3 3.6 6.1 6.5 6.5 6.5 6.5 6.5 6.5 6.5 6.5 6.5 6.5 6.5 6.5 6.5 6.5 6.5 6.4 6.5 6.5 6.5 6.5 6.5 6.5 6.5 6.5 6.5 6.5 6.5 6.5
9.0 8.9 9.1 9.1 7.6 6.9 4.1 3.3 2.3 2.3 2.3 3.1 2.1 4.0 4.6 4.3 3.7 5.4 6.5 6.5 6.5 6.3 6.2 6.5 6.5 6.5 6.5 6.5 6.5 6.5 6.5 6.5 6.5 6.5 6.5 6.5 6.5 6.5 6.5 6.5 6.5 6.5 6.5 6.5 6.5 6.5 6.5
9.3 9.1 9.2 8.8 7.3 6.7 4.5 3.6 2.8 2.2 2.0 0.4 1.5 6.4 5.0 4.7 5.7 5.7 6.5 6.5 6.5 6.5 6.3 6.5 6.5 6.5 6.5 6.5 6.5 6.5 6.5 6.5 6.5 6.5 6.5 6.5 6.5 6.5 6.5 6.5 6.5 6.5 6.5 6.5 6.5 6.5 6.5
8.8 8.8 9.3 9.1 8.5 7.8 4.7 3.8 3.4 2.8 2.4 -1.1 1.7 2.0 3.1 4.3 6.5 6.5 6.4 6.5 6.4 6.5 6.5 6.5 6.5 6.5 6.5 6.5 6.5 6.5 6.5 6.6 6.6 6.5 6.5 6.5 6.5 6.5 6.5 6.5 6.5 6.5 6.5 6.5 6.5 6.5 6.5
8.7 9.3 9.3 9.3 8.9 8.9 5.4 4.0 3.7 2.9 2.5 -1.3 1.5 6.5 2.9 4.2 4.7 6.5 6.5 6.5 6.5 6.1 6.5 6.4 6.5 6.5 6.5 6.5 6.5 6.5 6.5 6.5 6.2 6.6 6.9 6.7 6.5 6.5 6.5 6.5 6.5 6.5 6.5 6.5 6.5 6.5 6.5
9.3 9.3 9.2 9.3 9.3 9.2 6.5 4.5 3.7 3.0 1.8 -0.6 -0.5 5.9 5.4 6.5 6.2 6.5 6.5 6.5 6.5 6.5 6.3 6.4 6.5 6.5 6.5 6.5 6.5 6.5 6.5 6.5 6.6 6.8 6.6 6.5 6.5 6.5 6.5 6.5 6.5 6.5 6.5 6.5 6.5 6.5 6.5
9.3 9.1 8.9 9.1 9.3 9.3 9.1 7.0 4.9 3.3 1.3 -2.6 2.6 4.4 3.1 4.8 5.1 6.5 6.5 6.5 6.5 6.5 6.5 6.5 6.5 6.5 6.5 6.5 6.5 6.5 6.5 6.5 6.5 6.5 6.5 6.5 6.5 6.5 6.5 6.5 6.5 6.5 6.5 6.5 6.5 6.5 6.5
9.0 8.9 8.9 9.2 9.3 9.3 9.4 9.1 8.4 6.1 2.6 0.3 0.9 2.7 4.0 5.9 6.4 6.5 6.5 6.5 6.5 6.5 6.4 6.4 6.5 6.5 6.5 6.5 6.2 6.1 5.9 5.7 6.5 6.5 6.5 6.5 6.5 6.5 6.5 6.5 6.5 6.5 6.5 6.5 6.5 6.5 6.5
9.1 9.2 8.9 8.9 9.3 9.1 9.4 9.1 9.3 8.8 6.4 2.6 2.8 4.7 4.7 6.5 6.5 6.5 6.5 6.5 6.5 6.5 6.5 6.2 6.1 6.5 6.1 5.2 5.8 6.2 6.4 6.3 6.4 6.5 6.5 6.5 6.5 6.5 6.5 6.5 6.5 6.5 6.5 6.5 6.5 6.5 6.5
8.9 8.8 9.2 8.9 9.3 8.9 9.4 9.1 9.4 9.1 8.0 4.2 2.4 3.6 5.5 6.5 6.5 6.4 6.5 6.5 5.7 5.5 6.4 6.3 6.0 5.3 4.5 5.9 6.5 6.5 6.5 6.5 6.5 6.5 6.5 6.5 6.5 6.5 6.5 6.5 6.5 6.5 6.5 6.5 6.5 6.5 6.5
9.3 9.0 9.1 9.2 9.4 9.2 9.3 8.8 9.3 9.1 9.0 6.1 4.1 3.5 6.3 6.7 6.4 6.4 6.5 6.4 6.5 6.5 6.5 6.1 5.9 5.2 6.1 6.5 6.5 6.5 6.5 6.5 6.5 6.5 6.5 6.5 6.5 6.5 6.5 6.5 6.5 6.5 6.5 6.2 6.5 6.5 6.7
9.3 9.2 9.3 9.4 9.3 9.1 9.3 9.1 8.8 9.2 9.1 7.1 4.6 4.0 5.1 6.7 5.1 5.4 6.3 6.7 7.2 6.4 6.5 5.9 5.4 6.4 6.3 6.5 6.5 6.5 6.5 6.5 6.5 6.5 6.5 6.5 6.5 6.5 6.5 6.5 6.5 6.5 6.6 5.6 6.5 6.5 6.8
9.0 9.3 9.4 9.3 9.4 9.3 9.0 9.3 8.5 8.8 9.4 7.8 5.1 4.1 6.4 7.1 5.2 4.9 5.8 5.7 6.2 6.5 6.5 5.8 5.8 6.1 6.4 6.5 6.5 6.5 6.5 6.5 6.5 6.5 6.5 6.5 6.5 6.5 6.5 6.5 6.5 6.7 6.3 6.5 6.4 4.8 5.8
8.9 9.1 9.3 9.3 9.3 9.4 9.2 9.3 8.8 8.9 9.3 7.4 6.0 6.2 5.1 4.8 5.2 5.2 6.1 6.1 6.0 6.1 6.4 6.8 6.7 6.4 6.7 6.5 6.5 6.5 6.5 6.5 6.5 6.5 6.5 6.5 6.5 6.5 6.5 6.5 6.7 6.1 5.9 3.4 1.8 5.9 3.3
Wind_Speed
21 21 21 21 21 21 21 20 20 19 19 19 19 18 17 16 16 16 16 16 13 10 10 9 6 19 5 2 8 6 13 21 13 11 10 7 6 5 7 6 5 5 5 11 13 19 15
20 20 20 20 21 22 22 21 21 21 20 20 19 19 18 17 17 16 17 16 14 13 10 7 7 16 4 3 3 12 3 12 7 7 7 7 8 5 5 5 4 6 16 13 9 11 7
20 21 22 22 22 22 23 22 22 21 21 20 19 19 19 18 17 17 15 14 14 16 12 5 13 4 2 10 1 11 5 4 5 5 7 3 7 4 6 7 8 9 12 10 5 5 8
20 20 21 22 22 22 22 22 22 22 21 20 19 18 18 18 16 16 15 17 17 12 6 8 15 1 5 3 5 3 5 4 6 5 5 4 4 7 5 11 5 5 4 5 2 3 2
21 21 22 22 22 24 24 23 23 23 22 21 20 20 19 17 15 14 15 18 16 2 7 9 5 2 6 5 2 4 5 8 6 4 3 3 5 5 4 6 4 1 5 5 4 5 5
20 21 21 23 22 23 24 25 24 25 24 22 22 19 17 15 13 13 15 15 5 7 6 3 4 1 4 3 3 6 3 8 5 7 5 3 4 4 3 4 10 8 6 4 6 2 10
20 21 21 22 23 24 25 25 25 25 26 24 22 19 16 12 9 9 7 2 3 2 4 5 6 3 3 4 3 3 5 6 4 5 5 2 4 10 15 4 5 7 7 8 3 3 6
19 21 22 24 24 25 25 26 27 27 27 25 22 19 16 9 6 6 3 1 3 1 5 12 5 5 5 3 2 2 7 6 6 6 6 4 16 6 9 8 7 6 9 4 4 2 5
21 21 23 24 25 26 27 28 28 28 27 25 21 18 14 4 2 2 2 0 1 2 2 3 7 4 5 6 4 9 8 5 5 6 8 9 3 11 7 6 8 4 9 8 6 6 6
21 23 24 25 26 27 28 28 29 29 28 24 19 17 16 4 4 2 2 5 5 1 3 3 3 5 5 4 3 4 7 6 3 13 5 3 2 14 8 8 6 6 5 12 18 10 5
22 23 25 25 27 28 29 30 30 30 28 24 17 13 6 4 2 2 2 9 4 1 2 2 2 1 2 6 4 3 4 4 8 7 7 8 8 8 11 12 7 4 12 10 9 4 5
22 24 25 26 28 30 31 31 31 31 29 27 14 5 5 3 2 3 9 5 1 3 5 1 2 3 5 2 1 3 2 3 4 5 1 4 2 8 9 4 11 17 10 8 4 3 2
21 23 25 26 28 30 31 32 33 33 31 27 11 1 3 4 0 7 6 2 3 2 5 1 1 3 3 4 3 3 8 5 5 5 4 2 3 3 5 7 13 6 7 3 2 4 5
21 24 25 27 29 30 33 34 34 33 32 27 11 1 3 1 7 6 2 3 2 1 2 3 3 2 4 3 3 4 13 10 6 2 3 7 4 9 5 8 11 9 12 6 8 6 6
21 23 25 27 29 31 32 34 34 34 33 27 7 2 2 3 4 1 5 2 4 1 1 4 3 4 3 3 4 3 5 8 11 12 5 6 6 1 3 4 13 7 10 8 5 3 3
21 23 25 28 30 32 33 35 36 35 33 21 1 2 3 7 1 4 2 4 3 1 1 2 1 4 6 6 4 6 7 6 9 13 6 2 2 0 3 3 2 8 9 5 3 7 6
20 23 25 28 30 32 34 35 36 37 34 13 2 3 3 4 2 3 3 4 4 1 0 2 3 3 1 5 7 6 5 4 2 11 16 8 5 1 3 4 6 3 6 4 4 6 6
21 22 25 27 29 32 34 35 36 37 32 8 2 2 3 2 3 1 3 3 2 2 1 3 2 5 5 4 2 5 8 2 7 3 11 12 4 4 2 2 2 1 2 17 9 7 0
18 21 23 26 28 31 33 35 36 37 22 2 2 1 3 2 1 2 4 4 2 2 4 2 4 5 3 4 4 5 4 3 5 4 6 5 4 4 1 2 2 4 4 2 4 2 9
16 19 23 24 26 29 32 34 36 37 21 3 2 3 4 3 1 1 4 4 4 1 4 3 3 0 2 5 6 4 3 2 2 1 5 4 5 5 11 3 4 7 7 7 7 6 6
18 20 22 23 25 28 30 33 34 38 20 3 4 1 2 2 2 3 2 3 3 3 3 2 2 5 4 2 3 5 2 1 3 4 4 3 4 5 3 2 2 2 6 12 15 12 8
16 18 20 22 24 26 28 29 31 36 16 4 2 3 4 1 2 3 2 0 3 5 1 2 4 5 3 5 5 3 2 3 4 2 4 2 1 2 1 3 3 3 1 7 2 3 4
14 16 18 21 22 24 26 26 27 27 17 3 1 1 2 1 1 1 2 1 1 2 1 1 2 4 5 5 4 2 2 1 4 4 6 5 5 3 1 5 5 4 8 7 3 2 5
15 16 17 19 20 22 22 22 23 23 11 3 0 0 2 2 0 1 2 2 4 3 4 4 2 3 3 2 4 4 4 4 2 2 1 4 4 2 3 3 5 1 2 2 5 4 2
15 17 16 17 19 21 21 20 21 19 11 3 2 2 2 3 1 1 3 3 7 5 4 4 4 3 2 3 2 2 2 2 1 2 1 2 3 3 4 3 2 2 3 5 5 4 2
14 15 16 16 17 19 20 20 19 17 16 2 2 2 1 1 2 1 2 2 3 3 6 4 3 2 4 2 2 4 4 2 2 1 3 2 2 2 3 4 7 1 1 2 1 2 9
14 16 16 16 18 18 18 19 19 18 14 1 2 2 1 2 2 2 2 2 2 3 3 5 5 2 1 2 3 3 3 1 4 5 4 3 1 2 3 1 0 0 1 2 4 1 11
13 15 16 17 17 18 18 18 18 17 13 2 1 3 2 2 2 4 3 3 1 1 2 4 3 1 1 3 3 2 2 2 3 1 1 3 4 2 2 0 4 5 1 3 2 3 11
13 16 17 17 17 18 19 19 18 15 12 4 1 2 2 2 1 2 3 4 4 3 1 3 4 3 1 2 1 2 1 2 2 2 3 1 1 3 1 1 2 3 2 2 1 7 4
Wind_Direction
7 6 7 1 357 357 356 356 354 352 347 344 344 342 341 342 338 333 328 322 317 304 296 313 216 148 146 138 255 289 326 176 170 151 157 145 136 132 150 144 103 91 113 62 90 78 73
10 6 3 3 360 358 355 353 353 352 347 344 346 342 340 338 337 330 325 319 310 302 290 296 219 164 115 232 221 334 231 150 153 135 153 141 168 171 103 72 72 96 100 111 76 94 115
9 7 3 3 0 358 352 355 352 348 346 344 343 341 337 335 333 330 321 312 309 299 281 244 175 190 158 240 266 344 85 129 144 129 140 192 161 124 124 95 147 135 99 109 85 111 127
7 6 2 0 359 355 355 354 350 348 346 343 342 338 335 333 332 326 318 316 311 297 249 198 165 130 250 250 274 178 116 70 90 98 114 131 127 102 84 114 91 90 90 112 66 180 125
9 7 5 3 358 358 355 352 350 347 346 342 340 337 334 330 327 322 314 314 313 157 176 144 134 106 258 321 185 168 131 134 109 91 85 119 88 100 126 109 80 147 140 114 135 25 134
9 8 4 5 359 359 354 349 349 348 344 341 337 335 330 326 328 316 319 302 279 107 115 104 83 47 274 239 165 125 67 117 123 113 76 84 67 107 89 139 184 181 145 87 133 59 61
13 8 4 1 1 357 356 352 346 346 344 341 337 333 329 329 325 320 339 33 121 62 242 208 182 214 348 322 129 68 139 89 88 90 154 175 134 193 187 167 115 115 108 113 95 85 87
5 6 6 2 359 359 353 353 348 345 342 342 340 334 330 334 322 314 307 280 99 254 280 228 229 244 249 253 106 156 145 124 139 163 122 97 216 168 133 151 120 99 116 93 83 114 96
5 6 6 3 359 359 355 351 347 345 345 344 341 337 331 12 327 356 270 194 104 26 241 265 201 196 221 152 213 191 144 123 132 138 187 184 267 140 136 141 132 159 157 173 153 133 62
6 6 6 2 1 357 356 352 348 348 346 344 341 338 329 28 61 271 249 345 319 346 33 233 195 251 173 156 226 164 180 138 156 188 133 268 155 161 154 182 147 170 173 144 141 154 192
6 6 3 1 1 356 355 353 351 351 348 345 337 334 19 105 123 143 316 326 317 55 331 130 194 162 177 154 146 205 194 87 161 171 148 214 156 154 175 194 152 181 131 136 151 94 130
5 6 2 1 -0 357 355 353 353 352 352 347 346 341 92 39 7 272 319 329 333 28 257 131 125 154 141 133 100 104 151 65 142 123 101 167 149 158 192 133 163 135 94 77 92 123 253
7 4 2 2 1 358 356 355 355 354 352 350 355 44 130 141 163 337 321 90 75 207 351 44 189 156 196 166 121 173 184 205 159 132 181 137 185 193 132 85 141 127 141 118 180 195 228
8 7 3 2 1 360 359 357 356 354 351 348 346 87 326 233 314 318 27 52 167 260 329 334 317 127 188 155 174 161 178 223 236 119 146 166 212 173 188 163 177 192 176 166 202 198 197
14 8 6 4 2 2 1 359 357 355 350 345 332 346 355 291 329 77 67 73 222 301 345 335 298 142 230 229 142 132 208 216 210 198 208 177 228 156 156 150 152 202 210 183 109 46 118
14 10 8 5 4 2 2 0 358 355 350 347 43 35 317 318 359 66 94 256 246 333 305 261 27 343 206 185 148 186 186 219 217 209 142 275 213 270 139 137 215 174 167 177 195 179 225
11 10 9 7 4 2 3 1 359 356 349 344 47 52 265 324 36 94 192 235 287 253 126 269 197 234 303 332 193 189 208 274 252 184 191 169 202 319 97 206 176 157 185 217 200 202 220
14 10 10 8 5 2 3 2 0 359 351 39 70 34 299 359 61 31 236 199 343 269 198 234 215 243 228 206 249 249 218 234 345 149 188 187 168 177 170 127 62 346 227 204 214 210 232
5 13 8 9 6 3 3 2 1 2 8 19 80 256 311 72 159 307 315 292 249 285 238 209 248 213 170 202 270 207 199 355 9 359 174 178 204 144 26 310 33 235 183 106 105 74 208
10 9 11 9 7 5 5 4 2 1 3 87 75 21 333 35 104 250 301 268 285 333 280 266 256 280 211 238 218 254 245 188 326 58 16 246 193 218 232 167 134 175 188 200 186 214 201
7 10 9 9 8 6 8 7 5 3 2 91 27 127 146 323 19 338 313 297 271 293 203 268 244 220 175 266 261 233 229 299 191 217 181 179 264 184 146 125 91 152 172 184 206 210 208
9 12 8 7 9 6 9 10 9 9 10 76 74 38 12 273 271 275 294 309 330 335 325 318 268 332 246 223 220 257 163 194 245 123 164 192 234 90 95 113 128 156 263 157 93 112 96
2 14 7 11 8 5 9 12 9 21 29 68 332 55 116 281 327 142 230 290 262 12 260 147 292 304 278 256 294 284 273 141 182 176 192 181 156 139 236 125 122 267 205 195 120 95 136
360 10 10 8 9 3 8 10 8 22 56 109 209 269 59 279 225 243 337 310 272 270 256 300 278 226 314 106 120 66 66 72 89 150 233 171 128 77 123 176 219 21 13 354 104 74 69
3 5 7 7 5 2 3 4 6 10 31 91 176 92 61 285 286 263 353 303 301 282 264 244 248 223 338 297 267 296 278 320 50 47 226 175 133 129 169 206 338 347 206 162 177 171 168
356 359 359 6 1 1 358 360 4 3 14 97 106 140 96 294 248 87 331 311 300 311 319 259 301 264 177 250 233 201 223 229 238 91 15 86 76 137 167 188 208 213 57 7 260 261 156
357 354 358 -0 354 356 355 357 357 348 352 78 157 150 123 250 183 146 218 293 300 281 257 292 324 293 109 223 229 190 249 324 193 176 162 113 70 150 182 186 303 87 113 271 131 229 134
352 356 354 354 354 345 351 355 346 343 341 49 63 179 124 254 186 183 215 204 280 246 268 323 313 285 248 230 204 215 165 221 76 338 204 144 148 163 100 180 241 7 204 212 114 68 114
1 347 354 354 348 343 347 354 343 336 339 130 174 145 106 139 201 173 212 184 170 189 282 277 300 278 304 250 76 76 58 35 146 213 357 189 116 144 346 55 350 356 21 16 323 112 98